When you browse on this site, cookies collect data to enhance your experience and personalize the content and advertising you see.
Visit our Privacy Policy to learn more. By continuing to use the site, you agree to this use of cookies and data.
  • En España
  • Lista de países
  • Para 7 días
  • Temperatura del agua
  • El tiempo en el mapa
  • Informadores
  • user-avatar
    Iniciar sesión

    Tiempo cada hora Manika

    Hoy, 20 Octubre, Domingo

    Tiempo Temperatura Precipitaciones Viento Presión Humedad
    00:00 +20°C° 0 mm 2 mps 678 mmHg 78%
    01:00 +19°C° 0 mm 2 mps 678 mmHg 83%
    02:00 +19°C° 0 mm 1 mps 678 mmHg 89%
    03:00 +19°C° 0 mm 1 mps 678 mmHg 89%
    04:00 +19°C° 0 mm 1 mps 678 mmHg 88%
    05:00 +19°C° 0 mm 1 mps 677 mmHg 88%
    06:00 +22°C° 0 mm 1 mps 679 mmHg 71%
    07:00 +24°C° 0 mm 0 mps 680 mmHg 54%
    08:00 +28°C° 0 mm 0 mps 681 mmHg 38%
    09:00 +30°C° 0 mm 0 mps 681 mmHg 31%
    10:00 +35°C° 0 mm 1 mps 681 mmHg 24%
    11:00 +37°C° 0 mm 1 mps 681 mmHg 17%
    12:00 +38°C° 0 mm 2 mps 680 mmHg 15%
    13:00 +38°C° 0 mm 2 mps 679 mmHg 14%
    14:00 +39°C° 0 mm 2 mps 678 mmHg 12%
    15:00 +38°C° 0 mm 2 mps 678 mmHg 14%
    16:00 +37°C° 0 mm 3 mps 678 mmHg 15%
    17:00 +35°C° 0 mm 3 mps 677 mmHg 16%
    18:00 +33°C° 0 mm 3 mps 678 mmHg 25%
    19:00 +29°C° 0 mm 3 mps 678 mmHg 34%
    20:00 +27°C° 0 mm 3 mps 678 mmHg 44%
    21:00 +25°C° 0 mm 3 mps 678 mmHg 56%
    22:00 +24°C° 0 mm 2 mps 678 mmHg 67%
    23:00 +23°C° 0 mm 2 mps 678 mmHg 79%

    Mañana, 21 Octubre, Lunes

    Tiempo Temperatura Precipitaciones Viento Presión Humedad
    00:00 +21°C° 0 mm 2 mps 678 mmHg 81%
    01:00 +22°C° 0 mm 1 mps 677 mmHg 82%
    02:00 +21°C° 0 mm 1 mps 677 mmHg 84%
    03:00 +21°C° 0 mm 1 mps 676 mmHg 81%
    04:00 +21°C° 0 mm 1 mps 676 mmHg 78%
    05:00 +21°C° 0 mm 1 mps 676 mmHg 75%
    06:00 +24°C° 0 mm 1 mps 677 mmHg 61%
    07:00 +28°C° 0 mm 1 mps 678 mmHg 46%
    08:00 +32°C° 0 mm 1 mps 679 mmHg 32%
    09:00 +34°C° 0 mm 1 mps 679 mmHg 26%
    10:00 +37°C° 0 mm 1 mps 679 mmHg 19%
    11:00 +41°C° 0 mm 1 mps 679 mmHg 13%
    12:00 +41°C° 0 mm 2 mps 678 mmHg 12%
    13:00 +40°C° 0 mm 3 mps 677 mmHg 12%
    14:00 +41°C° 0 mm 4 mps 676 mmHg 12%
    15:00 +40°C° 0 mm 4 mps 676 mmHg 13%
    16:00 +38°C° 0 mm 4 mps 676 mmHg 14%
    17:00 +37°C° 0 mm 4 mps 675 mmHg 15%
    18:00 +35°C° 0 mm 4 mps 676 mmHg 19%
    19:00 +33°C° 0 mm 3 mps 676 mmHg 22%
    20:00 +30°C° 0 mm 3 mps 677 mmHg 26%
    21:00 +28°C° 0 mm 3 mps 677 mmHg 32%
    22:00 +27°C° 0 mm 3 mps 677 mmHg 38%
    23:00 +26°C° 0 mm 2 mps 677 mmHg 44%

    Pasado mañana, 22 Octubre, Martes

    Tiempo Temperatura Precipitaciones Viento Presión Humedad
    00:00 +25°C° 0 mm 2 mps 676 mmHg 50%
    01:00 +24°C° 0 mm 2 mps 675 mmHg 55%
    02:00 +23°C° 0 mm 2 mps 674 mmHg 61%
    03:00 +23°C° 0 mm 2 mps 675 mmHg 60%
    04:00 +23°C° 0 mm 1 mps 675 mmHg 59%
    05:00 +22°C° 0 mm 1 mps 675 mmHg 58%
    06:00 +26°C° 0 mm 1 mps 676 mmHg 46%
    07:00 +30°C° 0 mm 1 mps 677 mmHg 35%
    08:00 +34°C° 0 mm 1 mps 679 mmHg 24%
    09:00 +37°C° 0 mm 2 mps 679 mmHg 21%
    10:00 +38°C° 0 mm 3 mps 679 mmHg 19%
    11:00 +41°C° 0 mm 4 mps 679 mmHg 16%
    12:00 +41°C° 0 mm 5 mps 678 mmHg 16%
    13:00 +41°C° 0 mm 5 mps 678 mmHg 16%
    14:00 +41°C° 0 mm 5 mps 677 mmHg 15%
    15:00 +40°C° 0 mm 5 mps 677 mmHg 18%
    16:00 +37°C° 0 mm 5 mps 677 mmHg 21%
    17:00 +36°C° 0 mm 5 mps 676 mmHg 23%
    18:00 +33°C° 0 mm 5 mps 677 mmHg 37%
    19:00 +30°C° 0 mm 5 mps 677 mmHg 50%
    20:00 +27°C° 0 mm 4 mps 677 mmHg 64%
    21:00 +26°C° 0 mm 4 mps 677 mmHg 67%
    22:00 +25°C° 0 mm 3 mps 677 mmHg 70%
    23:00 +24°C° 0 mm 3 mps 677 mmHg 73%

    23 Octubre, Miércoles

    Tiempo Temperatura Precipitaciones Viento Presión Humedad
    00:00 +23°C° 0 mm 2 mps 676 mmHg 78%
    01:00 +21°C° 0 mm 2 mps 676 mmHg 82%
    02:00 +20°C° 0 mm 2 mps 675 mmHg 86%
    03:00 +19°C° 0 mm 2 mps 675 mmHg 88%
    04:00 +19°C° 0 mm 2 mps 676 mmHg 89%
    05:00 +19°C° 0 mm 2 mps 676 mmHg 90%
    06:00 +23°C° 0 mm 2 mps 677 mmHg 73%
    07:00 +26°C° 0 mm 2 mps 678 mmHg 56%
    08:00 +30°C° 0 mm 3 mps 678 mmHg 39%
    09:00 +33°C° 0 mm 3 mps 678 mmHg 31%
    10:00 +36°C° 0 mm 4 mps 678 mmHg 24%
    11:00 +40°C° 0 mm 5 mps 678 mmHg 17%
    12:00 +40°C° 0 mm 5 mps 678 mmHg 16%
    13:00 +41°C° 0 mm 5 mps 677 mmHg 15%
    14:00 +42°C° 0 mm 5 mps 677 mmHg 14%
    15:00 +41°C° 0 mm 5 mps 676 mmHg 15%
    16:00 +40°C° 0 mm 5 mps 676 mmHg 17%
    17:00 +39°C° 0 mm 5 mps 675 mmHg 18%
    18:00 +35°C° 0 mm 4 mps 676 mmHg 24%
    19:00 +33°C° 0 mm 4 mps 676 mmHg 29%
    20:00 +30°C° 0 mm 4 mps 676 mmHg 34%
    21:00 +28°C° 0 mm 3 mps 676 mmHg 39%
    22:00 +27°C° 0 mm 3 mps 676 mmHg 44%
    23:00 +26°C° 0 mm 3 mps 676 mmHg 49%

    24 Octubre, Jueves

    Tiempo Temperatura Precipitaciones Viento Presión Humedad
    00:00 +24°C° 0 mm 2 mps 676 mmHg 58%
    01:00 +23°C° 0 mm 2 mps 676 mmHg 67%
    02:00 +21°C° 0 mm 2 mps 675 mmHg 76%
    03:00 +21°C° 0 mm 2 mps 675 mmHg 76%
    04:00 +21°C° 0 mm 2 mps 676 mmHg 75%
    05:00 +22°C° 0 mm 1 mps 676 mmHg 75%
    06:00 +25°C° 0 mm 2 mps 677 mmHg 60%
    07:00 +29°C° 0 mm 2 mps 678 mmHg 46%
    08:00 +34°C° 0 mm 2 mps 679 mmHg 31%
    09:00 +36°C° 0 mm 2 mps 679 mmHg 25%
    10:00 +39°C° 0 mm 3 mps 679 mmHg 19%
    11:00 +42°C° 0 mm 3 mps 679 mmHg 13%
    12:00 +43°C° 0 mm 4 mps 678 mmHg 13%
    13:00 +43°C° 0 mm 5 mps 678 mmHg 12%
    14:00 +44°C° 0 mm 6 mps 677 mmHg 12%
    15:00 +42°C° 0 mm 5 mps 677 mmHg 13%
    16:00 +41°C° 0 mm 5 mps 676 mmHg 14%
    17:00 +40°C° 0 mm 5 mps 676 mmHg 16%
    18:00 +36°C° 0 mm 4 mps 676 mmHg 20%
    19:00 +33°C° 0 mm 3 mps 676 mmHg 24%
    20:00 +30°C° 0 mm 3 mps 676 mmHg 28%
    21:00 +29°C° 0 mm 2 mps 676 mmHg 30%
    22:00 +28°C° 0 mm 2 mps 677 mmHg 32%
    23:00 +27°C° 0 mm 2 mps 677 mmHg 34%

    25 Octubre, Viernes

    Tiempo Temperatura Precipitaciones Viento Presión Humedad
    00:00 +26°C° 0 mm 2 mps 676 mmHg 38%
    01:00 +25°C° 0 mm 2 mps 676 mmHg 42%
    02:00 +24°C° 0 mm 2 mps 676 mmHg 45%
    03:00 +24°C° 0 mm 2 mps 676 mmHg 47%
    04:00 +24°C° 0 mm 2 mps 676 mmHg 49%
    05:00 +23°C° 0 mm 2 mps 676 mmHg 50%
    06:00 +27°C° 0 mm 3 mps 677 mmHg 43%
    07:00 +30°C° 0 mm 3 mps 678 mmHg 35%
    08:00 +34°C° 0 mm 4 mps 679 mmHg 28%
    09:00 +36°C° 0 mm 4 mps 679 mmHg 24%
    10:00 +38°C° 0 mm 4 mps 679 mmHg 19%
    11:00 +40°C° 0 mm 3 mps 679 mmHg 15%
    12:00 +42°C° 0 mm 4 mps 678 mmHg 14%
    13:00 +42°C° 0 mm 4 mps 678 mmHg 13%
    14:00 +43°C° 0 mm 4 mps 677 mmHg 12%
    15:00 +42°C° 0 mm 4 mps 677 mmHg 13%
    16:00 +41°C° 0 mm 4 mps 676 mmHg 15%
    17:00 +40°C° 0 mm 5 mps 676 mmHg 16%
    18:00 +36°C° 0 mm 4 mps 676 mmHg 20%
    19:00 +34°C° 0 mm 3 mps 676 mmHg 24%
    20:00 +30°C° 0 mm 3 mps 676 mmHg 28%
    21:00 +29°C° 0 mm 3 mps 676 mmHg 29%
    22:00 +28°C° 0 mm 3 mps 676 mmHg 30%
    23:00 +28°C° 0 mm 2 mps 676 mmHg 31%
    Mostrar más